Lapse_Rate
6.6 6.6 6.6 6.4 6.3 6.2 6.2 6.1 6.1 6.0 5.9 5.9 6.0 6.2 6.1 6.1 6.1 6.3 6.3 6.4 6.4 6.3 6.4 6.5 6.5 6.6 6.4 6.3 6.1 5.9 5.6 5.5 5.6 5.7 5.8 5.7 5.6 5.7 5.6 5.6 5.5 5.5 5.7 5.6 5.7
6.6 6.6 6.6 6.5 6.3 6.3 6.2 6.2 6.1 6.0 5.9 6.0 6.1 6.2 6.2 6.1 6.2 6.4 6.4 6.5 6.5 6.4 6.4 6.3 6.5 6.5 6.5 6.4 6.2 6.1 5.9 5.6 5.7 5.8 5.9 5.9 5.7 5.9 5.8 5.7 5.8 6.0 5.7 5.8 5.8
6.6 6.6 6.6 6.5 6.4 6.3 6.3 6.3 6.2 6.1 6.1 6.1 6.2 6.2 6.3 6.3 6.3 6.4 6.6 6.6 6.6 6.4 6.5 6.4 6.5 6.5 6.5 6.3 6.2 6.2 6.1 6.0 6.0 5.9 5.8 5.9 6.0 5.8 5.8 6.0 5.9 6.2 6.3 5.8 5.7
6.6 6.6 6.6 6.6 6.5 6.5 6.4 6.3 6.2 6.2 6.2 6.2 6.3 6.3 6.4 6.4 6.4 6.6 6.6 6.5 6.4 6.4 6.5 6.5 6.6 6.6 6.5 6.3 6.2 6.2 6.1 6.2 6.1 6.1 6.0 6.0 6.0 6.0 6.3 5.9 5.9 6.0 6.1 6.1 5.9
6.6 6.6 6.6 6.6 6.6 6.6 6.5 6.4 6.4 6.2 6.2 6.2 6.3 6.4 6.4 6.4 6.5 6.5 6.5 6.4 6.5 6.5 6.5 6.5 6.6 6.7 6.6 6.3 6.2 6.2 6.1 6.1 6.1 6.2 6.1 6.1 5.9 6.3 6.4 6.3 6.3 6.0 6.0 6.0 6.0
6.6 6.6 6.7 6.7 6.6 6.5 6.5 6.4 6.4 6.3 6.2 6.2 6.3 6.4 6.5 6.5 6.6 6.6 6.5 6.5 6.4 6.5 6.5 6.5 6.5 6.6 6.5 6.4 6.3 6.2 6.2 6.3 6.2 6.3 6.2 6.6 6.3 6.6 6.3 6.2 6.3 6.2 6.1 6.3 6.2
6.6 6.6 6.6 6.6 6.7 6.6 6.6 6.5 6.4 6.4 6.3 6.3 6.4 6.4 6.5 6.5 6.6 6.6 6.6 6.6 6.6 6.6 6.6 6.6 6.6 6.5 6.5 6.4 6.3 6.3 6.3 6.2 6.4 6.3 6.4 6.5 6.7 6.6 6.5 6.4 6.4 6.3 6.2 6.3 6.3
6.7 6.7 6.8 6.8 6.8 6.8 6.7 6.6 6.5 6.5 6.4 6.5 6.5 6.5 6.5 6.6 6.6 6.6 6.6 6.7 6.7 6.7 6.7 6.6 6.6 6.4 6.4 6.3 6.2 6.2 6.2 6.3 6.3 6.2 6.2 6.3 7.1 6.9 7.0 6.8 6.8 6.8 6.7 6.5 6.3
6.8 6.8 6.8 6.8 6.8 6.8 6.8 6.7 6.7 6.7 6.6 6.7 6.7 6.7 6.7 6.7 6.7 6.7 6.8 6.8 6.7 6.7 6.7 6.6 6.5 6.4 6.3 6.4 6.2 6.0 5.9 5.8 6.0 6.1 6.0 6.3 7.2 6.5 6.8 7.1 7.0 7.1 6.8 6.8 6.7
6.7 6.7 6.8 6.9 6.9 6.9 6.9 6.9 6.9 6.9 6.9 6.9 6.9 6.8 6.7 6.7 6.8 6.8 6.8 6.8 6.8 6.7 6.7 6.6 6.6 6.5 6.4 6.2 6.2 6.0 6.0 6.1 5.7 5.9 6.2 6.2 7.2 7.3 6.5 7.1 7.1 7.0 6.9 6.8 6.8
6.8 6.8 6.8 6.9 6.9 6.9 7.0 6.9 7.0 7.0 7.0 6.9 6.9 6.9 6.7 6.8 6.8 6.8 6.7 6.8 6.8 6.9 6.8 6.8 6.8 6.6 6.4 6.3 6.2 6.0 5.9 5.9 6.1 5.9 6.0 6.4 7.1 7.7 7.5 7.4 7.1 7.0 7.1 7.2 7.1
6.6 6.7 6.7 6.8 6.8 6.8 6.9 6.9 7.0 7.0 7.0 7.0 6.9 6.8 6.6 6.6 6.7 6.7 6.7 6.8 6.8 6.9 6.8 6.8 6.9 6.6 6.4 6.3 6.3 6.1 6.0 6.2 6.0 6.1 5.9 6.5 7.2 7.8 7.5 7.4 7.2 7.3 6.9 6.9 7.1
6.6 6.6 6.6 6.6 6.7 6.7 6.7 6.8 6.8 6.9 6.8 7.0 6.8 6.7 6.5 6.5 6.7 6.7 6.8 6.8 6.8 6.8 6.8 6.7 6.7 6.6 6.6 6.4 6.3 6.4 6.2 6.1 5.7 5.7 6.6 6.5 6.5 7.6 7.4 7.3 7.1 7.0 7.1 6.9 6.7
6.5 6.5 6.6 6.6 6.7 6.7 6.7 6.7 6.7 6.7 6.8 6.7 6.7 6.6 6.6 6.7 6.8 6.8 6.8 6.8 6.8 6.7 6.5 6.7 6.8 6.6 6.5 6.5 6.2 6.4 6.4 6.2 6.0 5.8 5.4 5.8 5.0 7.3 7.3 7.4 7.2 7.1 7.1 6.8 6.6
6.4 6.5 6.6 6.6 6.5 6.6 6.5 6.6 6.6 6.6 4.4 6.6 6.6 6.6 6.6 6.7 6.6 6.9 6.8 6.8 6.7 6.5 6.4 6.6 6.6 6.6 6.5 6.6 6.4 6.3 6.4 6.2 6.0 5.6 4.7 6.2 5.2 6.9 7.1 7.4 7.3 7.0 7.0 6.8 6.6
6.3 6.3 6.3 6.3 6.4 6.4 6.4 6.3 6.5 6.6 6.3 6.7 6.6 6.6 6.6 6.6 6.8 6.7 6.7 6.6 6.6 6.5 6.6 6.6 6.6 6.6 6.6 6.7 6.7 6.5 6.4 6.4 6.0 5.3 4.1 6.5 5.9 6.3 7.3 7.2 6.9 6.6 7.0 6.8 6.7
6.4 6.3 6.3 6.3 6.3 6.2 6.2 6.3 6.4 6.5 6.8 6.6 6.6 6.6 6.6 6.7 6.9 6.8 6.7 6.7 6.6 6.3 6.5 6.3 6.5 6.6 6.6 6.7 6.7 6.6 6.5 6.3 4.7 4.2 4.9 6.2 5.5 6.5 6.9 6.9 7.0 6.7 6.5 6.6 6.5
6.5 6.5 6.4 6.3 6.2 6.3 6.3 6.4 6.4 6.6 6.8 6.8 6.6 6.5 6.6 6.6 6.6 6.6 6.5 6.6 6.9 6.7 6.3 6.1 6.1 6.6 6.6 6.7 6.6 6.3 6.4 6.7 5.8 5.1 5.0 6.0 5.9 7.0 7.2 7.3 6.8 6.6 6.3 6.1 6.0
6.4 6.6 6.5 6.5 6.5 6.5 6.4 6.3 6.5 6.7 6.7 6.6 6.5 6.5 6.5 6.5 6.4 6.2 6.3 6.4 6.6 6.7 6.5 6.4 6.0 6.3 6.4 6.5 6.5 6.0 6.3 6.3 6.2 5.9 5.1 6.0 6.6 6.6 7.0 6.9 6.6 6.4 5.9 6.3 6.0
6.4 6.5 6.5 6.6 6.6 6.5 6.4 6.4 6.5 6.5 6.5 6.4 6.3 6.2 6.3 6.2 6.0 6.0 6.0 6.3 6.3 6.5 6.7 6.5 6.0 5.9 6.1 6.1 6.3 6.5 6.4 6.2 6.2 5.4 5.1 5.5 6.6 7.1 6.8 6.6 6.3 5.9 6.2 6.1 6.1
6.1 6.3 6.4 6.4 6.4 6.3 6.2 6.2 6.2 6.3 6.3 6.2 6.1 6.1 6.1 6.1 6.0 5.9 5.9 6.4 6.3 6.5 6.7 6.6 6.2 5.9 5.8 6.0 6.2 6.4 6.3 6.5 6.2 5.6 5.4 4.6 6.1 6.6 6.2 5.9 5.8 5.8 5.9 5.8 5.6
5.8 5.9 6.0 6.0 6.1 6.2 6.3 6.0 5.9 5.9 6.0 5.9 5.9 5.9 5.9 5.9 5.8 5.7 5.8 6.2 6.1 6.2 6.2 6.3 6.3 5.8 5.9 5.9 6.0 6.0 6.0 6.2 6.1 5.3 5.3 5.5 5.7 6.7 6.5 6.0 5.9 5.6 5.8 5.8 5.8
5.6 5.6 5.9 5.9 5.9 5.9 5.5 5.5 5.6 5.6 6.0 5.9 5.6 5.5 5.5 5.5 5.5 5.5 5.7 5.9 6.0 6.0 6.0 6.0 5.8 5.8 5.9 5.9 6.1 5.6 5.5 5.2 5.4 5.3 4.9 5.6 5.4 6.3 5.7 5.6 5.7 5.9 5.8 5.8 5.8
4.9 4.9 5.1 5.4 5.5 5.2 5.7 5.7 5.5 5.4 5.6 5.7 5.3 5.2 5.2 5.4 5.5 5.3 5.3 5.4 5.4 5.4 5.5 6.0 5.9 6.0 5.7 6.2 6.2 5.5 5.4 5.3 5.5 5.4 5.5 5.0 6.0 6.2 5.6 5.6 5.7 5.8 5.9 6.1 6.0
4.7 4.5 4.4 5.0 5.0 4.9 4.9 5.1 5.3 5.4 5.3 5.1 5.0 5.1 5.1 5.0 5.0 5.1 5.2 5.2 5.3 5.3 5.1 5.1 5.3 5.7 5.7 5.7 5.6 5.5 5.5 5.5 5.5 5.6 5.4 5.3 5.6 5.8 5.6 5.9 6.0 6.0 5.9 5.8 5.7
4.7 4.7 4.7 4.5 5.0 5.2 5.1 4.8 5.1 5.3 4.9 4.7 4.7 4.9 4.9 5.0 5.3 4.9 5.1 5.3 5.3 5.3 5.2 5.3 5.2 5.2 4.8 5.3 5.4 5.1 5.3 5.7 6.0 6.2 5.7 5.8 5.8 5.6 5.8 5.8 5.7 5.7 5.7 5.9 5.9
4.8 4.8 4.8 4.5 4.8 4.9 5.1 5.2 5.0 5.0 4.9 5.0 4.9 4.9 5.0 5.2 5.0 5.1 4.9 4.9 5.0 5.0 5.2 5.2 5.3 5.4 5.0 5.3 5.4 4.8 5.4 6.0 6.1 5.9 5.7 5.8 6.1 6.2 5.3 5.2 5.1 5.4 5.7 5.8 5.6
Wind_Speed
10 9 8 8 7 6 6 6 5 5 5 7 9 11 13 17 15 4 4 4 6 16 10 5 5 5 1 1 2 3 4 2 2 2 3 2 3 2 3 4 2 5 5 7 10
11 10 8 8 7 7 6 6 5 5 5 7 8 10 12 14 2 6 2 6 8 10 4 6 3 3 2 1 3 4 3 1 0 1 3 2 3 4 1 2 3 3 6 8 9
12 11 10 9 8 7 6 6 6 5 6 7 8 10 11 7 2 2 6 6 7 5 3 3 4 2 2 2 2 2 2 0 2 3 4 4 2 2 3 5 6 7 11 9 6
13 12 11 10 9 8 7 5 5 5 6 7 10 11 9 1 1 2 8 8 11 7 4 3 4 2 2 1 1 2 0 2 2 2 1 2 5 6 6 7 5 5 14 8 8
14 13 11 10 9 8 7 6 6 6 6 8 10 11 1 3 1 4 8 10 6 5 4 3 5 2 2 2 3 1 3 2 4 4 3 4 7 5 9 9 7 9 11 10 8
17 15 12 11 9 8 6 6 6 6 7 8 9 8 2 1 2 5 5 4 5 4 5 6 2 1 1 2 2 2 3 4 5 4 4 4 4 1 6 5 8 9 10 9 10
17 15 13 12 9 8 7 6 7 7 8 8 7 2 2 3 1 4 2 1 1 2 2 3 3 3 2 1 1 2 4 5 5 4 3 2 6 7 11 5 10 8 8 9 9
20 17 14 13 12 11 11 9 8 8 8 8 4 0 2 1 3 3 5 2 2 2 2 2 4 2 3 1 1 1 1 4 2 6 2 4 8 6 5 10 9 9 8 8 9
24 20 17 15 14 12 12 10 10 9 7 6 1 1 5 1 1 1 2 1 5 1 1 2 2 2 4 2 4 3 3 3 5 7 2 4 9 7 6 8 9 9 9 9 8
25 22 20 18 16 13 13 7 3 7 0 2 2 2 1 1 1 3 1 1 1 2 4 3 4 3 3 3 2 3 3 4 4 3 4 5 19 9 9 9 12 10 10 9 11
26 23 21 20 18 13 8 2 4 3 1 2 2 2 1 4 2 1 0 2 2 0 1 1 4 3 5 3 2 2 3 5 5 3 3 6 15 23 10 9 9 10 9 10 13
27 24 21 19 15 15 1 4 2 2 4 1 0 1 1 1 2 1 4 1 1 1 2 4 3 3 4 2 1 2 4 6 5 4 2 6 15 17 4 5 7 13 10 10 7
29 27 23 20 10 5 5 2 3 3 1 1 2 1 1 1 2 2 2 1 2 2 3 5 2 4 2 1 3 4 5 3 4 6 6 5 7 4 1 1 3 6 6 6 10
29 28 27 27 4 0 3 4 4 1 4 2 1 1 0 1 2 1 1 1 2 2 2 4 2 3 3 4 4 4 2 2 3 5 2 4 5 7 3 3 3 5 7 9 8
29 29 26 11 2 3 2 5 4 2 4 0 1 1 1 2 2 2 0 1 2 1 3 5 5 4 4 4 4 6 1 5 3 2 3 3 2 7 2 4 7 9 8 8 8
29 27 25 4 3 1 4 4 2 5 4 1 2 1 2 2 2 3 0 0 1 1 3 5 0 3 4 2 2 2 4 4 2 2 1 5 6 5 5 7 5 1 7 8 7
32 24 9 4 2 4 3 3 5 3 1 1 1 2 1 3 3 4 2 2 3 1 2 1 3 1 2 1 2 2 4 4 4 2 5 2 1 8 4 4 4 6 1 8 7
36 23 2 1 2 3 2 4 1 3 1 2 2 2 4 1 4 3 2 4 5 3 0 3 6 7 5 5 6 4 5 4 5 3 5 1 7 5 2 7 5 7 4 5 6
27 3 1 2 0 2 4 3 6 3 1 2 4 2 3 2 2 2 6 5 5 7 7 2 5 2 1 1 3 3 3 3 2 2 2 4 6 0 3 5 5 4 4 6 7
4 4 3 2 2 3 4 5 3 0 1 1 3 5 2 3 2 3 3 2 4 2 3 2 6 3 0 1 1 3 1 1 1 4 5 5 4 4 3 4 5 8 8 4 2
3 4 3 2 3 4 3 6 2 1 1 2 3 3 3 3 3 3 5 3 2 2 4 1 4 2 3 7 8 1 3 4 2 4 3 3 5 4 8 9 10 11 14 11 13
3 3 2 3 3 2 3 3 3 3 1 2 1 3 4 3 3 3 7 6 4 6 4 4 3 5 11 2 1 4 7 6 4 4 4 3 6 8 12 14 12 11 12 14 16
3 3 2 4 2 3 6 3 2 5 4 5 4 6 1 3 3 5 5 3 5 6 6 3 3 4 8 2 2 3 2 3 1 1 9 6 3 2 12 13 12 13 14 13 13
2 3 4 2 1 3 2 4 2 3 3 4 3 1 2 4 6 6 3 1 3 2 4 5 5 8 14 13 1 4 6 6 10 5 6 11 15 8 9 9 9 12 11 11 11
2 4 3 3 2 0 0 2 6 5 4 6 3 6 7 5 5 9 6 3 2 5 3 3 6 6 15 16 10 16 13 12 14 16 12 22 18 2 6 7 7 8 8 9 9
2 2 3 3 3 4 2 4 7 6 4 9 11 9 6 8 12 13 3 3 6 4 6 4 5 3 18 12 15 23 18 18 19 23 22 22 20 7 7 7 8 8 8 9 9
4 4 3 4 4 4 5 6 7 4 7 10 7 2 4 9 3 4 6 6 9 7 7 5 4 3 12 6 9 14 11 17 5 7 5 4 6 8 7 10 9 8 8 9 8
Wind_Direction
5 1 354 351 352 353 359 357 342 331 327 324 326 324 329 334 336 64 46 288 294 305 314 275 308 259 30 60 4 56 57 354 15 74 157 190 125 316 151 134 199 159 138 150 150
6 1 358 355 357 357 356 357 352 350 344 334 328 323 330 340 353 62 247 293 294 307 353 11 7 336 8 104 10 78 86 345 40 75 56 196 156 166 172 220 228 90 95 139 153
9 7 3 359 356 354 349 354 360 354 340 331 325 324 332 335 37 352 323 329 317 320 262 307 307 324 92 52 17 358 130 32 34 84 46 345 301 224 192 259 224 205 175 164 163
11 10 6 360 357 352 350 350 346 336 333 335 337 333 328 340 133 289 354 345 332 323 318 309 315 314 79 101 239 69 278 64 164 91 33 264 325 311 205 220 175 148 164 159 167
12 10 5 0 357 352 343 331 325 328 329 337 339 340 334 44 232 354 0 2 14 355 32 341 19 31 95 123 18 25 208 156 147 156 239 280 266 248 260 252 164 123 148 169 173
10 6 1 358 355 344 329 317 321 317 322 330 334 331 16 59 236 359 3 26 14 31 21 34 16 265 2 87 105 299 319 253 198 218 241 241 259 24 273 210 165 149 160 178 178
11 7 358 352 340 332 326 313 306 303 311 319 325 4 340 187 23 335 14 169 346 39 71 20 352 42 350 113 348 326 316 306 223 211 245 34 291 222 231 165 170 176 174 175 187
7 2 355 346 339 331 327 308 297 299 307 308 321 347 272 283 339 38 355 277 81 59 87 314 5 73 62 283 333 282 134 337 285 165 238 89 271 262 199 163 183 188 186 184 190
3 356 350 343 334 322 316 302 287 287 282 297 358 112 305 7 36 331 76 352 302 263 11 327 36 83 21 62 10 349 276 267 328 201 119 196 271 263 185 177 203 200 195 188 186
357 351 345 340 332 321 312 277 300 327 278 241 279 21 260 274 283 331 222 160 331 333 3 23 44 48 18 77 257 285 324 323 272 261 216 257 267 245 217 210 214 201 200 193 187
354 347 342 339 333 337 350 23 20 357 246 215 180 251 89 317 99 204 32 358 240 85 71 264 57 221 207 157 138 226 246 270 268 182 250 236 273 282 245 231 220 201 201 200 199
353 346 341 338 334 335 38 72 47 250 318 204 287 262 160 126 337 247 20 359 225 265 179 18 231 169 125 110 173 248 275 267 274 186 357 298 289 298 279 230 198 194 204 202 192
350 344 339 336 329 30 82 77 307 357 202 224 214 278 172 94 299 231 12 8 241 276 221 185 253 139 128 237 252 244 218 265 249 329 289 307 284 311 306 352 93 194 202 192 188
347 344 339 338 63 360 53 324 328 348 60 234 255 243 139 125 289 104 43 144 253 237 304 239 162 178 220 251 184 286 182 254 302 31 291 57 280 301 228 231 238 207 191 203 185
346 342 339 3 276 52 286 321 315 61 8 274 209 118 158 216 278 192 101 83 227 199 102 257 169 200 239 226 162 232 278 251 180 213 9 286 120 271 232 254 249 232 226 212 200
341 340 341 25 45 271 309 328 61 45 267 156 142 233 279 194 235 133 245 204 173 317 204 246 341 211 214 197 208 3 312 12 91 104 346 232 152 277 220 199 194 98 225 203 194
336 332 331 310 294 317 346 53 35 136 210 211 208 206 265 245 227 180 225 231 197 310 299 216 231 184 162 168 15 66 53 320 338 342 231 208 169 240 230 173 155 127 305 199 189
331 325 261 220 319 4 56 51 198 253 81 238 218 275 221 196 240 217 275 282 222 115 286 213 310 183 178 208 186 191 150 172 275 256 264 266 242 258 49 100 97 89 93 142 167
329 343 283 233 191 74 68 62 218 216 211 3 324 253 241 227 227 215 214 231 211 171 184 249 264 61 82 36 136 171 180 192 245 282 303 235 289 357 70 98 92 124 122 154 165
327 337 276 188 99 68 77 229 244 147 336 161 200 200 276 213 218 173 268 218 179 125 135 286 297 198 210 43 335 185 188 98 104 272 261 280 267 237 175 123 75 32 351 293 101
16 360 266 118 72 57 186 227 204 104 100 193 253 282 266 291 230 226 251 295 93 119 77 145 166 263 112 201 194 122 239 220 150 166 250 303 269 223 101 60 58 33 24 12 75
360 338 264 79 18 234 206 231 190 175 160 248 225 246 224 275 269 261 228 215 129 151 181 220 191 246 228 267 247 175 198 170 170 215 223 235 253 57 77 64 49 33 53 59 61
321 257 314 95 219 290 306 286 249 184 198 176 237 217 144 229 283 240 259 193 163 166 180 174 241 315 315 300 0 186 164 119 358 55 226 246 230 84 74 62 47 71 71 64 60
320 319 309 45 217 179 346 265 294 322 267 200 227 166 210 232 228 271 271 279 193 227 127 156 205 213 253 257 137 217 205 205 202 207 254 223 256 187 87 87 83 82 79 79 72
211 249 217 281 291 204 206 267 299 299 231 187 263 215 208 245 231 248 251 312 209 167 124 190 258 227 256 274 276 273 268 242 233 243 242 271 261 322 102 104 82 84 82 72 63
268 268 338 257 272 276 209 221 242 255 242 259 248 234 261 255 251 291 300 204 233 198 183 189 254 241 267 258 262 270 265 259 259 255 257 260 260 82 89 81 65 53 53 58 52
348 346 284 208 209 219 210 223 239 254 258 256 230 256 258 262 257 268 228 226 245 228 211 181 204 193 271 248 271 268 253 236 235 57 321 284 45 34 84 67 40 34 42 41 32